Theta_e
322 315 318 324 322 321 321 321 320 322 321 321 321 322 324 324 329 331 337 336 327 326 323 320 319 320 323 322 319 319 324 326 324 320 318 319 319 319 319 319 318 318 318 318 317 317 318 318 318
322 314 321 321 320 321 321 319 321 321 321 320 321 321 323 325 323 325 328 338 327 326 324 322 321 320 320 319 317 317 319 319 319 319 320 320 320 320 320 320 319 319 318 318 318 318 318 318 319
320 314 322 324 321 319 320 319 321 320 320 319 322 323 323 327 334 332 329 328 327 325 324 323 321 320 319 318 318 319 320 320 320 321 321 321 321 321 321 320 320 319 319 319 318 319 319 319 319
323 319 321 323 321 320 319 321 320 320 321 320 321 326 325 328 333 336 336 331 329 325 325 324 322 319 319 318 319 321 321 322 321 322 322 322 322 321 321 320 320 319 319 319 319 319 319 319 319
323 325 320 322 320 321 319 320 320 322 321 321 324 327 326 327 333 337 339 334 327 325 324 324 323 321 319 319 320 321 322 322 322 322 322 322 322 321 321 320 319 319 320 319 319 319 319 319 319
326 325 327 323 320 320 321 321 322 322 322 324 327 326 327 329 329 340 339 334 325 326 324 324 323 322 321 320 321 321 322 323 323 322 322 322 322 321 321 320 320 319 320 319 319 319 319 319 319
325 327 325 326 325 324 324 321 323 324 326 327 326 325 327 326 325 341 337 329 325 325 323 324 323 321 320 320 321 321 322 322 323 322 322 322 322 321 321 320 320 319 319 319 318 318 319 319 319
327 326 325 325 324 325 324 325 325 325 326 325 325 327 327 324 324 337 337 327 324 324 322 323 323 322 320 320 321 321 322 322 322 322 322 321 321 321 320 320 319 319 318 318 317 317 317 318 318
324 325 325 325 325 325 325 325 324 324 325 324 324 324 323 322 323 326 338 328 325 323 323 322 323 323 321 320 320 321 322 322 321 321 321 320 321 320 320 319 319 319 318 318 317 317 316 316 317
321 322 323 325 325 325 325 324 324 323 324 324 323 322 322 321 323 328 332 334 326 323 323 321 321 322 322 321 321 321 321 321 321 321 321 321 321 320 319 319 319 318 318 318 318 317 316 316 315
317 319 321 324 324 324 324 322 322 322 323 324 321 320 320 320 320 322 325 336 334 324 322 322 321 321 321 321 320 321 321 321 321 321 321 321 321 320 319 319 319 319 318 318 318 317 316 316 315
314 315 317 320 321 320 323 318 319 319 320 319 318 318 318 319 319 320 321 326 336 334 324 322 321 320 320 320 321 321 321 321 321 321 321 321 320 320 319 319 319 319 318 318 317 317 317 316 316
313 313 313 313 313 315 315 318 318 318 316 316 317 317 317 318 319 319 321 324 326 332 330 323 322 321 320 319 320 321 321 321 321 321 321 321 321 321 320 319 319 319 319 319 318 318 319 319 320
311 311 312 312 313 312 314 316 315 317 315 315 315 316 317 317 318 319 320 322 323 325 327 331 325 322 322 322 321 320 320 321 321 321 323 323 323 322 321 320 319 319 320 323 324 325 328 329 330
310 311 311 312 312 313 313 314 315 313 313 315 315 315 314 314 316 317 318 319 320 324 326 328 332 327 323 323 321 321 322 322 322 323 323 322 322 322 322 323 322 320 323 330 331 334 336 337 337
311 310 311 311 311 312 313 316 314 312 312 313 313 313 313 313 314 315 316 318 319 323 326 330 332 335 328 332 326 321 322 322 323 323 323 323 322 322 324 326 327 323 328 332 333 337 338 339 340
310 310 311 312 312 313 312 313 313 312 312 312 312 313 313 313 313 314 315 315 318 320 321 322 326 330 335 337 330 323 322 322 322 322 323 323 322 324 332 332 330 329 335 335 336 336 338 338 341
312 312 312 312 312 313 313 313 313 312 312 312 312 312 312 313 313 313 314 314 315 317 319 321 323 330 330 339 339 335 326 323 322 323 325 326 326 328 334 334 335 334 337 339 338 336 336 336 341
311 311 311 311 312 312 312 312 312 312 312 312 312 311 312 312 313 313 313 314 314 315 315 317 320 322 325 334 339 341 341 339 329 325 326 328 327 333 335 335 337 335 338 340 340 339 336 335 339
310 311 311 313 312 312 312 312 312 312 312 312 312 312 311 311 311 312 311 312 313 314 314 315 315 318 321 324 325 332 339 341 340 337 333 328 330 331 336 337 340 339 336 338 339 337 336 334 338
311 312 313 311 312 311 312 310 311 311 310 311 311 311 310 310 310 312 313 312 312 312 313 314 314 315 317 318 319 323 329 336 338 337 340 339 334 332 337 338 340 339 337 336 335 335 336 335 339
312 313 312 311 311 310 311 308 311 311 311 311 311 313 313 312 312 313 313 312 312 313 314 313 313 314 315 316 316 318 321 324 328 330 333 338 340 337 339 338 338 340 336 332 329 333 335 335 339
311 312 312 311 311 311 310 310 311 311 311 312 312 312 314 314 313 312 311 312 312 311 312 313 314 313 314 314 315 316 317 321 323 324 328 333 333 335 335 337 337 337 334 330 327 331 332 335 340
311 311 309 309 310 310 310 310 310 311 311 312 311 311 312 314 313 313 312 312 312 312 312 312 313 314 314 314 314 315 316 318 321 323 326 326 327 331 334 337 337 335 330 328 326 327 333 336 342
310 311 311 310 310 309 310 310 310 311 311 312 311 311 312 314 313 312 312 312 313 314 314 313 312 313 314 314 314 315 315 317 320 323 324 325 327 332 335 337 336 331 328 326 325 326 329 337 343
311 311 312 311 309 309 309 310 310 310 310 310 311 312 313 312 312 312 312 311 313 314 315 315 314 313 315 315 314 315 315 316 318 322 324 326 327 329 333 337 335 330 328 326 325 328 336 343 344
311 311 310 311 310 311 310 310 310 311 311 311 312 313 311 311 313 313 312 312 312 313 314 316 316 316 316 317 316 315 315 316 318 322 323 324 324 324 328 335 335 330 327 326 327 337 344 345 344
311 310 311 312 312 311 310 310 310 311 310 311 313 311 311 311 313 314 313 313 313 313 315 316 318 321 320 319 319 317 315 315 317 320 325 323 323 326 331 337 334 330 327 327 338 344 345 344 340
311 311 312 312 312 312 311 311 311 311 311 312 311 311 310 312 313 314 313 313 315 315 316 315 319 322 324 322 321 321 318 315 317 320 326 330 331 333 334 334 333 330 327 333 341 344 343 337 336
310 311 312 314 313 313 314 313 311 311 311 311 311 311 311 312 313 313 314 315 316 316 315 314 315 321 324 322 323 324 323 319 317 321 325 331 331 331 332 333 329 327 328 336 343 344 339 336 337
Wind_Speed
10 4 3 3 3 2 3 3 1 4 2 2 7 6 8 13 8 3 1 12 24 29 29 29 28 29 27 25 23 22 22 22 22 21 22 22 21 20 19 17 16 15 14 13 12 10 9 8 7
6 2 2 2 3 6 5 3 7 5 4 11 10 4 7 9 17 25 24 12 27 31 31 31 29 31 29 27 26 26 26 25 25 25 24 22 19 17 16 15 14 13 12 11 10 9 8 6 6
3 3 1 2 3 9 1 6 6 3 10 4 4 9 6 4 10 10 11 21 32 35 32 33 30 32 32 31 30 29 28 27 26 24 23 20 18 16 14 13 12 11 9 8 7 7 6 4 4
1 2 3 3 11 1 2 3 3 7 4 2 6 10 10 9 24 16 15 22 33 38 35 34 32 33 33 33 32 30 29 27 26 24 21 19 17 15 13 12 10 9 8 7 6 5 4 3 2
4 2 3 3 7 2 3 9 9 12 9 7 7 9 12 19 25 14 15 26 40 42 38 36 34 33 35 35 33 31 29 27 25 23 21 18 16 14 13 11 10 9 7 7 6 5 5 4 2
3 2 5 8 10 3 3 8 6 6 7 9 10 14 4 26 36 16 10 28 44 42 40 39 36 34 35 35 34 32 30 27 25 23 20 18 16 14 13 11 10 9 8 7 6 6 6 5 4
5 5 11 9 9 5 2 3 1 4 9 3 12 6 8 28 36 21 11 32 42 42 42 41 39 38 35 34 33 33 30 27 24 22 20 18 16 15 13 12 11 10 8 8 8 7 7 6 6
5 3 9 8 13 13 5 3 0 3 10 9 9 5 10 26 29 23 10 32 41 44 42 41 41 39 38 36 35 33 31 29 26 23 21 19 17 16 15 13 12 11 10 10 10 10 9 9 9
6 7 11 15 13 9 7 3 6 7 13 6 4 11 15 22 24 24 9 27 34 41 43 42 41 41 40 39 37 34 32 30 28 26 24 22 20 20 19 17 14 13 12 13 13 13 13 12 12
9 9 14 8 13 9 5 3 7 6 14 14 11 11 18 23 15 16 11 18 30 38 43 43 43 42 40 39 38 36 34 32 31 30 28 26 24 22 21 19 17 15 14 15 15 16 17 15 16
7 12 8 10 10 9 11 6 4 3 11 14 16 25 24 18 15 15 16 9 23 35 41 43 44 43 41 40 39 39 37 36 34 32 30 27 25 23 23 22 21 18 17 16 17 17 19 19 16
7 7 13 13 11 7 13 10 8 12 13 18 21 25 16 15 16 14 13 11 11 22 37 41 43 44 43 42 41 39 38 37 35 33 30 28 27 25 26 24 22 19 18 17 18 19 19 20 18
6 5 5 7 9 14 13 20 18 16 13 20 18 17 21 18 16 12 10 9 10 14 23 42 45 43 42 43 41 40 40 38 35 33 31 29 28 26 26 26 23 20 18 18 17 19 18 19 19
4 5 7 7 11 8 12 21 11 8 7 14 19 17 12 10 11 15 8 6 10 12 14 26 35 42 42 42 42 42 41 39 36 34 31 30 27 27 26 26 25 22 19 18 17 17 17 17 19
2 6 7 11 12 11 10 18 14 2 2 13 12 9 6 6 5 8 10 11 7 12 18 14 21 34 38 40 45 44 43 40 37 36 32 30 30 29 28 24 29 25 19 16 17 17 17 17 18
3 3 6 2 2 7 11 12 9 9 9 6 6 9 9 9 7 6 7 11 11 9 14 12 11 25 36 41 49 49 46 42 40 37 34 32 30 30 24 26 31 26 23 18 17 17 17 17 18
2 4 4 3 4 3 5 6 1 6 8 11 10 8 8 10 8 6 6 7 11 15 15 15 11 15 22 34 42 48 48 46 43 37 35 34 34 33 18 37 31 27 24 21 16 17 16 18 17
3 3 2 5 1 6 6 7 8 15 7 9 13 15 7 8 9 11 10 9 9 9 15 17 17 21 27 25 29 40 48 49 45 40 41 35 36 32 16 38 29 28 28 23 18 16 16 18 17
2 3 4 3 1 9 10 13 12 16 14 13 12 15 13 9 10 10 12 13 15 12 10 11 16 15 20 21 22 28 33 39 45 45 43 43 41 31 34 36 35 27 28 23 18 17 17 19 17
6 5 5 5 5 7 13 17 15 14 10 10 7 7 15 17 10 15 17 16 17 18 16 14 11 14 18 21 23 25 26 29 33 38 44 47 43 38 36 40 33 30 26 25 19 19 18 20 17
5 6 4 4 5 7 9 13 1 4 7 3 5 5 7 9 10 11 10 14 17 18 21 21 18 14 16 18 21 23 26 29 29 31 36 45 46 45 41 40 34 30 29 23 20 20 21 20 18
7 8 4 4 5 7 2 6 6 3 5 6 10 8 8 8 8 11 14 13 14 14 16 22 24 23 18 17 20 24 30 32 32 32 33 32 38 45 44 35 33 32 29 23 23 23 23 22 21
1 5 2 4 9 5 6 5 1 6 5 7 8 5 10 8 7 11 11 18 21 20 19 19 21 27 25 23 20 22 27 34 36 35 36 38 38 42 42 34 28 29 24 24 25 26 24 24 22
5 3 0 1 2 5 2 4 4 6 8 4 9 11 13 11 14 15 17 20 21 20 20 21 21 22 26 27 26 25 27 29 36 40 41 40 39 40 37 32 29 26 25 26 26 27 26 23 23
4 0 4 3 4 3 2 7 9 7 11 10 13 18 13 14 19 21 21 21 21 23 23 22 22 23 22 25 29 30 30 27 33 38 43 45 39 39 39 34 29 26 24 24 26 26 26 23 22
4 3 3 5 4 6 5 8 2 4 6 12 15 12 10 16 17 17 19 19 19 24 26 25 23 24 25 25 27 30 32 31 30 35 38 42 39 37 35 33 30 26 22 26 26 24 22 21 21
4 6 2 5 2 6 6 7 9 9 7 4 3 3 13 19 22 18 16 12 17 24 27 27 23 24 25 27 27 29 33 33 30 32 39 39 38 37 32 32 31 25 26 25 23 22 21 20 20
5 9 3 2 4 6 6 12 9 8 10 6 7 11 16 20 22 23 13 12 16 20 24 27 26 24 22 25 27 28 30 34 33 32 39 41 40 34 29 29 29 26 25 23 22 22 20 19 19
6 6 2 2 3 4 6 5 3 5 7 11 12 13 19 22 20 21 17 16 16 20 22 27 29 24 21 20 24 28 28 33 35 33 35 33 29 24 23 26 28 27 27 23 23 22 18 20 19
5 10 11 7 6 5 4 10 4 9 5 6 17 26 24 21 22 21 18 20 20 20 24 27 30 29 27 25 23 27 28 31 37 35 33 26 24 25 26 25 27 29 26 25 24 21 22 20 19
Wind_Direction
331 325 157 143 229 244 214 195 291 191 181 214 274 248 252 267 218 235 188 214 186 185 182 176 174 172 171 172 167 162 162 162 161 159 155 150 147 142 137 135 134 131 129 127 126 125 120 119 115
327 285 146 131 241 223 212 192 198 221 315 302 295 272 260 274 244 255 270 212 186 185 181 174 173 171 169 168 164 162 160 162 162 158 156 153 148 145 143 143 140 137 136 133 132 129 127 123 117
333 196 207 241 205 239 189 207 202 233 301 253 310 302 276 308 318 272 283 226 188 184 182 174 174 172 171 167 163 162 162 162 162 161 158 157 155 154 154 155 150 146 144 141 139 138 131 123 121
157 143 68 238 237 221 284 199 198 300 316 223 310 297 316 357 325 276 287 203 195 185 183 176 175 174 173 172 167 165 166 166 167 166 167 166 165 168 169 169 165 160 162 166 163 159 155 152 154
185 157 215 241 262 215 235 272 283 295 302 289 327 328 316 336 341 310 262 204 190 185 182 178 177 176 174 175 172 172 172 171 173 175 176 176 177 181 182 182 184 181 185 193 193 193 192 194 198
196 185 217 241 243 189 229 245 286 299 294 309 328 327 355 345 0 339 244 196 186 184 182 180 181 181 178 178 176 178 178 177 182 185 186 186 190 194 193 195 200 203 206 216 222 217 219 223 227
216 215 241 245 267 271 202 188 124 308 318 327 337 304 338 356 359 347 236 188 183 185 186 182 184 184 185 184 184 185 184 184 190 194 196 198 202 206 207 207 216 224 230 236 241 242 237 243 248
201 217 229 231 246 256 210 151 266 297 304 312 345 350 338 349 354 351 255 192 185 187 190 188 188 187 189 191 192 192 192 192 197 203 208 209 212 219 221 222 225 236 244 253 259 260 261 260 259
175 226 235 229 231 236 188 193 258 269 281 287 301 319 324 349 348 357 290 208 195 190 193 193 195 193 193 194 197 199 199 200 203 208 214 217 220 223 228 234 237 240 248 258 265 269 267 268 264
200 229 226 230 240 232 199 220 272 299 285 279 299 304 326 338 346 335 347 225 208 197 198 197 200 201 199 199 201 204 205 206 209 212 217 219 226 231 235 240 242 247 253 260 268 273 274 271 273
193 236 221 212 229 233 240 202 212 254 291 305 318 316 325 333 336 335 337 258 233 213 206 203 204 206 205 205 206 209 210 212 213 217 221 225 231 237 241 244 245 248 253 264 269 275 278 279 278
225 232 234 233 244 271 256 291 240 226 261 290 297 305 312 323 322 317 323 344 274 244 225 210 212 212 210 211 212 215 217 220 221 223 227 230 235 239 245 248 253 256 262 267 270 275 279 280 282
218 227 249 237 251 259 269 261 265 273 278 299 296 299 299 303 304 321 322 306 323 269 243 227 218 220 219 217 217 220 223 224 227 229 232 236 240 244 251 253 257 263 268 272 274 273 272 278 282
167 221 257 264 249 240 252 263 269 273 275 297 306 303 301 292 289 286 306 305 289 286 273 244 238 231 225 227 226 226 226 229 230 234 237 243 250 255 259 263 265 267 271 274 272 269 270 272 276
232 262 252 240 240 239 227 255 250 292 283 274 295 309 331 349 306 285 276 281 282 269 265 262 241 234 238 240 236 232 232 232 235 236 241 246 251 260 267 272 274 267 265 263 262 264 265 269 274
216 233 247 71 242 239 212 239 111 29 21 327 317 309 327 328 342 333 289 262 270 278 264 272 240 240 234 215 243 241 238 235 236 239 242 248 254 262 269 267 276 272 264 249 253 261 266 269 271
170 233 210 155 49 338 215 243 15 355 345 316 311 313 315 319 320 317 318 292 250 255 265 270 255 257 253 244 241 240 243 243 242 243 248 251 253 254 272 272 272 264 260 247 251 260 266 273 268
178 223 227 257 7 322 277 274 289 301 282 270 295 303 288 301 302 306 297 297 274 259 254 260 253 232 266 256 242 246 246 245 244 244 252 249 253 249 238 267 264 265 255 246 252 261 267 270 263
239 242 246 271 186 324 299 299 292 287 283 253 232 256 275 279 281 281 286 286 287 275 268 270 256 253 249 252 247 241 243 245 246 242 242 247 249 239 246 251 259 262 257 254 257 258 265 268 261
204 211 225 291 290 312 308 303 291 285 273 268 273 247 283 289 268 291 297 293 283 281 278 274 281 266 260 258 260 255 253 251 249 249 249 246 246 244 247 252 256 258 261 256 260 265 268 265 258
186 204 190 265 310 274 305 290 168 319 273 232 316 311 293 297 315 327 321 305 302 289 281 277 274 274 263 265 264 257 253 252 252 250 251 249 247 248 253 259 260 256 258 261 269 272 266 265 260
209 199 202 239 295 299 328 292 263 240 334 149 18 356 338 314 302 312 324 331 325 317 296 279 276 272 267 265 266 266 254 253 253 255 257 253 252 248 254 263 255 251 254 262 274 272 266 258 256
159 158 223 275 287 281 237 250 261 213 257 212 328 326 340 351 348 345 338 341 334 327 321 298 277 266 267 265 264 268 266 255 249 252 254 254 252 254 263 259 249 246 253 263 274 271 268 257 248
136 167 118 148 243 252 183 257 185 209 217 240 313 322 316 329 346 331 330 335 336 327 316 312 288 274 268 268 264 264 266 263 254 249 245 250 254 257 257 251 248 247 252 263 271 272 261 255 246
167 201 290 239 211 282 130 284 260 241 240 257 293 302 314 328 329 328 327 328 331 330 323 313 295 280 274 267 262 261 262 264 258 250 252 251 250 252 254 250 248 245 252 263 268 268 258 244 240
171 209 252 288 268 295 230 248 232 183 263 283 297 310 327 337 333 322 319 318 328 332 328 314 297 282 274 269 261 258 257 258 260 249 246 249 250 249 255 254 251 242 249 260 266 261 243 232 232
147 214 356 260 298 274 246 262 261 260 230 283 339 346 348 342 336 331 318 312 318 320 321 314 299 286 278 273 268 259 256 255 259 253 246 245 246 250 257 248 242 235 252 255 256 239 229 232 231
255 146 183 178 258 257 255 273 255 278 299 306 312 325 337 339 331 330 318 316 321 318 321 314 307 302 292 281 274 265 258 253 254 251 244 240 245 250 238 235 233 239 247 246 231 226 224 232 218
207 206 160 244 235 265 293 259 231 247 290 304 301 313 321 325 321 324 315 308 312 317 320 314 308 304 313 293 275 267 258 252 252 250 240 236 233 226 223 228 231 245 239 226 222 223 227 208 215
259 250 220 228 221 236 282 269 219 245 289 307 307 306 308 307 308 311 310 309 308 306 310 320 306 298 305 312 286 271 258 251 248 247 235 220 219 223 225 230 237 232 226 221 219 218 206 207 216